Regional Weather Roundup
Issued by NWS Albany, NY

Home | Current Version | Previous Version | Graphics & Text | Print | Product List | Glossary On
Versions: 1 2 3 4 5 6 7 8 9 10 11 12 13 14 15 16 17 18 19 20 21 22 23 24 25 26 27 28 29 30 31 32 33 34 35 36 37 38 39 40 41 42 43 44 45 46 47 48 49 50
000
ASUS41 KALY 220310
RWRALY

NEW YORK STATE HOURLY WEATHER ROUNDUP
NATIONAL WEATHER SERVICE ALBANY NY
1100 PM EDT FRI JUL 21 2017

NOTE: "FAIR" INDICATES FEW OR NO CLOUDS BELOW 12,000 FEET WITH NO
SIGNIFICANT WEATHER AND/OR NO OBSTRUCTIONS TO VISIBILITY.

NYZ032-033-038>043-046>054-057>066-NYZ062>081-082-084-220400-
EAST


CITY           SKY/WX    TMP DP  RH WIND       PRES   REMARKS
ALBANY         MOCLDY    75  61  61 W12       29.87F
GLENS FALLS    CLOUDY    70  57  63 W8        29.85F
POUGHKEEPSIE   PTCLDY    76  69  79 CALM      29.85S
NEWBURGH       MOCLDY    77  72  83 CALM      29.89S
MONTGOMERY     PTCLDY    75  72  90 CALM      29.87F
ISLIP          CLOUDY    79  73  82 SW6       29.86F
NEW YORK CITY  CLOUDY    89  70  53 SW7       29.86S HX  94
CENTRAL PARK   CLOUDY    85  68  56 VRB3      29.90R
$$

NYZ005>009-017-018-044>046-055-056-220400-
CENTRAL


CITY           SKY/WX    TMP DP  RH WIND       PRES   REMARKS
FULTON         PTCLDY    63  59  87 CALM      29.90S
SYRACUSE       MOCLDY    69  59  70 SW6       29.89F
ROME           PTCLDY    64  61  90 E3        29.90F
ELMIRA         CLEAR     68  42  38 CALM      29.94S
BINGHAMTON     CLEAR     68  62  81 N6        29.96S
$$

NYZ026>034-041>043-087-220400-
NORTH


CITY           SKY/WX    TMP DP  RH WIND       PRES   REMARKS
WATERTOWN      MOCLDY    70  65  84 S6        29.86F
FORT DRUM      NOT AVBL
OGDENSBURG     FAIR      67  64  92 S3        29.84F
MASSENA        CLOUDY    67  65  93 SW6       29.84F
SARANAC LAKE   PTCLDY    64  61  90 SW5       29.90F
PLATTSBURGH    PTCLDY    71  64  78 W3        29.82F
$$

NYZ001>004-010>016-019>021-085-220400-
WEST


CITY           SKY/WX    TMP DP  RH WIND       PRES   REMARKS
NIAGARA FALLS  MOCLDY    74  59  59 NW5       29.93R
BUFFALO        MOCLDY    75  61  61 W6        29.94R
DUNKIRK        CLEAR     70  67  90 SW5       29.95S
JAMESTOWN      PTCLDY    70  61  73 W7        30.00F
WELLSVILLE     CLEAR     68  61  78 W8        30.02F
ROCHESTER      MOCLDY    69  63  81 NW3       29.93S
PENN YAN       PTCLDY    70  64  81 CALM      29.94F
$$

             KEY
       WCI = WIND CHILL INDEX
       VSB = VISIBILITY
       HX  = HEAT INDEX
$$



USA.gov is the U.S. government's official web portal to all federal, state and local government web resources and services.